McComb, MS

12:43 AM CDT on June 23, 2017 (GMT -0500)
McComb-Pike County-Lewis

Weather History for KMCB - March, 2011

Change the Weather History Date:

Tuesday, March 22, 2011

  Actual Average Record
Temperature  
Mean Temperature 71 °F -  
Max Temperature 82 °F 70 °F 87 °F (1991)
Min Temperature 60 °F 44 °F 24 °F (1986)
Cooling Degree Days 6    
Growing Degree Days 21 (Base 50)    
Moisture  
Dew Point 61 °F    
Average Humidity 83    
Maximum Humidity 100    
Minimum Humidity 35    
Precipitation  
Precipitation 0.00 in - - ()
Sea Level Pressure  
Sea Level Pressure 30.08 in    
Wind  
Wind Speed 6 mph (SSW)    
Max Wind Speed 16 mph    
Max Gust Speed 28 mph    
Visibility 6 miles    
Events Fog    
Averages and records for this station are not official NWS values.
T = Trace of Precipitation, MM = Missing Value Source: NWS Daily Summary

Daily Weather History Graph

Daily Weather History Graph

Search for Another Location

Airport or City:

Trip Planner

Search our weather history database for the weather conditions in past years. The results will help you decide how hot, cold, wet, or windy it might be!

Date:

Astronomy

Mar. 22, 2011 Rise Set
Actual Time 7:03 AM CDT 7:14 PM CDT
Civil Twilight 6:39 AM CDT 7:38 PM CDT
Nautical Twilight 6:11 AM CDT 8:06 PM CDT
Astronomical Twilight 5:42 AM CDT 8:35 PM CDT
Moon 11:01 PM CDT (3/22) 8:45 AM CDT (3/22)
Length of Visible Light 12h 59m
Length of Day
12h 11m
Waning Gibbous, 87% of the Moon is Illuminated
Mar 22
Waning Gibbous
Mar 26
Last Quarter
Apr 3
New
Apr 11
First Quarter
Apr 17
Full

Hourly Weather History & Observations

Time (CDT) Temp. Heat Index Dew Point Humidity Pressure Visibility Wind Dir Wind Speed Gust Speed Precip Events Conditions
1:53 AM 61.0 °F - 60.1 °F 97% 30.15 in 4.0 mi Calm Calm - N/A   Clear
2:06 AM 60.8 °F - 60.8 °F 100% 30.15 in 4.0 mi Calm Calm - N/A   Scattered Clouds
2:27 AM 62.6 °F - 60.8 °F 94% 30.14 in 4.0 mi South 5.8 mph - N/A   Overcast
2:38 AM 62.6 °F - 62.6 °F 100% 30.14 in 2.5 mi South 4.6 mph - N/A   Overcast
2:45 AM 62.6 °F - 62.6 °F 100% 30.14 in 3.0 mi South 4.6 mph - N/A   Overcast
2:50 AM 62.6 °F - 62.6 °F 100% 30.14 in 1.8 mi South 4.6 mph - N/A   Overcast
2:53 AM 63.0 °F - 63.0 °F 100% 30.13 in 1.2 mi South 4.6 mph - N/A   Overcast
3:03 AM 62.6 °F - 62.6 °F 100% 30.14 in 0.5 mi South 4.6 mph - N/A Fog Fog
3:16 AM 64.4 °F - 64.4 °F 100% 30.14 in 0.2 mi South 8.1 mph - N/A Fog Fog
3:53 AM 64.0 °F - 64.0 °F 100% 30.11 in 0.2 mi South 6.9 mph - N/A Fog Fog
4:15 AM 64.4 °F - 64.4 °F 100% 30.12 in 0.5 mi South 6.9 mph - N/A Fog Fog
4:39 AM 64.4 °F - 64.4 °F 100% 30.11 in 1.2 mi SSW 4.6 mph - N/A   Overcast
4:53 AM 64.9 °F - 64.9 °F 100% 30.10 in 1.5 mi SSW 3.5 mph - N/A   Overcast
5:24 AM 64.4 °F - 64.4 °F 100% 30.11 in 0.8 mi South 6.9 mph - N/A   Overcast
5:34 AM 64.4 °F - 64.4 °F 100% 30.11 in 2.0 mi South 9.2 mph - N/A   Overcast
5:42 AM 64.4 °F - 64.4 °F 100% 30.11 in 4.0 mi SSW 8.1 mph - N/A   Overcast
5:53 AM 64.9 °F - 64.9 °F 100% 30.10 in 5.0 mi SSW 6.9 mph - N/A   Overcast
6:06 AM 64.4 °F - 64.4 °F 100% 30.12 in 5.0 mi South 8.1 mph - N/A   Overcast
6:43 AM 64.4 °F - 64.4 °F 100% 30.11 in 6.0 mi South 6.9 mph - N/A   Mostly Cloudy
6:53 AM 64.0 °F - 64.0 °F 100% 30.11 in 6.0 mi South 8.1 mph - N/A   Mostly Cloudy
7:07 AM 64.4 °F - 64.4 °F 100% 30.12 in 6.0 mi SSW 5.8 mph - N/A   Overcast
7:25 AM 64.4 °F - 64.4 °F 100% 30.12 in 4.0 mi South 5.8 mph - N/A   Overcast
7:51 AM 64.4 °F - 64.4 °F 100% 30.12 in 5.0 mi South 8.1 mph - N/A   Mostly Cloudy
7:53 AM 64.0 °F - 64.0 °F 100% 30.11 in 5.0 mi SSW 6.9 mph - N/A   Mostly Cloudy
8:02 AM 64.4 °F - 64.4 °F 100% 30.13 in 5.0 mi SSW 6.9 mph - N/A   Overcast
8:35 AM 66.2 °F - 64.4 °F 94% 30.13 in 5.0 mi South 8.1 mph - N/A   Mostly Cloudy
8:53 AM 66.9 °F - 64.0 °F 90% 30.12 in 6.0 mi SSW 8.1 mph - N/A   Overcast
9:16 AM 68.0 °F - 62.6 °F 83% 30.13 in 8.0 mi SSW 11.5 mph - N/A   Mostly Cloudy
9:45 AM 68.0 °F - 62.6 °F 83% 30.12 in 9.0 mi SSW 11.5 mph - N/A   Partly Cloudy
9:53 AM 69.1 °F - 63.0 °F 81% 30.11 in 9.0 mi SSW 12.7 mph - N/A   Scattered Clouds
10:53 AM 72.0 °F - 62.1 °F 71% 30.10 in 10.0 mi SSW 16.1 mph 26.5 mph N/A   Mostly Cloudy
11:53 AM 77.0 °F - 61.0 °F 58% 30.09 in 10.0 mi South 13.8 mph 23.0 mph N/A   Partly Cloudy
12:53 PM 78.1 °F - 59.0 °F 52% 30.06 in 10.0 mi SSW 15.0 mph 27.6 mph N/A   Clear
1:53 PM 81.0 °F 81.3 °F 59.0 °F 47% 30.01 in 10.0 mi SSW 16.1 mph 21.9 mph N/A   Clear
2:53 PM 81.0 °F 80.8 °F 55.9 °F 42% 29.99 in 10.0 mi SSW 11.5 mph 21.9 mph N/A   Partly Cloudy
3:53 PM 82.9 °F 81.9 °F 54.0 °F 37% 29.96 in 10.0 mi South 16.1 mph 25.3 mph N/A   Partly Cloudy
4:53 PM 82.0 °F - 52.0 °F 35% 29.96 in 10.0 mi SW 15.0 mph 21.9 mph N/A   Partly Cloudy
5:53 PM 80.1 °F - 51.1 °F 36% 29.94 in 10.0 mi SSW 10.4 mph 23.0 mph N/A   Partly Cloudy
6:53 PM 75.9 °F - 46.9 °F 36% 29.95 in 10.0 mi SSW 9.2 mph - N/A   Clear
7:53 PM 72.0 °F - 51.1 °F 48% 29.96 in 10.0 mi SSW 6.9 mph - N/A   Clear
8:53 PM 71.1 °F - 55.0 °F 57% 29.96 in 10.0 mi SSW 8.1 mph - N/A   Clear
9:53 PM 69.1 °F - 57.9 °F 68% 29.96 in 10.0 mi SSW 9.2 mph - N/A   Clear
10:53 PM 66.9 °F - 59.0 °F 76% 29.97 in 10.0 mi South 6.9 mph - N/A   Partly Cloudy
11:53 PM 66.0 °F - 61.0 °F 84% 29.94 in 10.0 mi South 9.2 mph - N/A   Clear